COSMOS 876

Satellite information

Favourite Embed

Satellite Type and Status

PAYLOADIN ORBIT

Key statistics

Satellite COSMOS 876 at a glance.

Uptime

17745

Days in orbit

Revolutions

≈ 12.4

Per day

Orbit

LEO

Low Earth Orbit

Inclination

74.0

Latest

Satellite identification and parameters

Extended collection of information and parameters for COSMOS 876.

Object identification

Identified? True

Debris? False

Object name: COSMOS 876

International designator: 1976-118F

Object number (NORAD): 9593

Object ID (CCSDS): 9593

Country: COMMONWEALTH OF INDEPENDENT STATES (CIS)

Current information (Y/N): Y

RCS size: MEDIUM

Orbital parameters

Period: 116.005 minutes

Inclination: 74.031 deg

SMA: 7879.142 km

Apoapsis: 1538.477 km

Periapsis: 1463.537 km

RAAN: 85.8594 deg

Eccentricy: 0.0047556

Argument of periapsis: 307.5142 deg

Mean anomaly: 122.8982 deg

Mean motion: 12.41321862 rev/day

Mean motion (dot): -0.00000022 rev/day2

B* drag term: -0.000044108 1/REarth

Two-line elements (TLE)

Creation date: July 8, 2025, 2:27 a.m.

Reference frame: TEME

Reference center: EARTH

Epoch: July 7, 2025, 8:29 p.m. UTC

TLE line 0: 0 COSMOS 876

TLE line 1: 1 09593U 76118F 25188.85375579 -.00000022 00000-0 -44108-4 0 9999

TLE line 2: 2 09593 74.0310 85.8594 0047556 307.5142 122.8982 12.41321862201477

Live tracking on map

Real-time ground track for satellite COSMOS 876.

In-orbit conjunctions

A list of the most updated potential collisions computed for object COSMOS 876.

Target Orbit TCA Probability of collision Miss distance Type
DELTA 1 DEB SSO 2024-09-24 22:29:25 0.0006863105 556.0 (m) DEBRIS

Associated space launch

Military communications satellites

COSMOS 876 was lifted into orbit during the mission ‘Kosmos-3M | Strela-1M 121-128’, on board a Kosmos-3M space rocket.

The launch took place on Dec. 7, 1976, 10:23 a.m. from 132/1 (132L).

For more information about the launch, click the button.

Launch to space Kosmos-3M | Strela-1M 121-128
Kosmos-3M | Strela-1M 121-128

Agency: N/A

Status: Launch Successful

Launch date: Dec. 7, 1976, 10:23 a.m. UTC

Rocket: Kosmos-3M

Launch pad: 132/1 (132L)

Location: Plesetsk Cosmodrome, Russian Federation

...

Latest news about this satellite

There are no fresh news available about this satellite. Check back as we update our databases every day.


Newsletter sign-up

Weekly statistics, charts and insights to help you stay on top of the space industry.